Weather History for Grand Rapids, MI

Change the Weather History Date:

Friday, February 8, 2013

  Actual Average Record
Temperature  
Mean Temperature 23 °F 25 °F  
Max Temperature 34 °F 32 °F 60 °F (1925)
Min Temperature 12 °F 19 °F -12 °F (1974)
Degree Days  
Heating Degree Days 42 40  
Month to date heating degree days 376 320  
Since 1 July heating degree days 3742 4027  
Cooling Degree Days 0 0  
Month to date cooling degree days 0 0  
Year to date cooling degree days 0 0  
Moisture  
Dew Point 22 °F    
Average Humidity 72    
Maximum Humidity 92    
Minimum Humidity 51    
Precipitation  
Precipitation 0.15 in 0.06 in 0.75 in (1900)
Month to date precipitation 1.12 0.45  
Year to date precipitation 5.13 2.54  
Snow  
Snow 2.00 in 0.60 in 5.40 in (1952)
Month to date snowfall 18.4 4.7  
Since 1 July snowfall 42.9 54.7  
Snow Depth 10.00 in    
Sea Level Pressure  
Sea Level Pressure 30.09 in    
Wind  
Wind Speed 10 mph (North)    
Max Wind Speed 20 mph    
Max Gust Speed 24 mph    
Visibility 6 miles    
Events Snow    
T = Trace of Precipitation, MM = Missing Value Source: NWS Daily Summary

Daily Weather History Graph

Daily Weather History Graph

Search for Another Location

Airport:

Trip Planner

Search our weather history database for the weather conditions in past years. The results will help you decide how hot, cold, wet, or windy it might be!

Date:

Astronomy

Feb. 08, 2013 Rise Set
Actual Time 7:48 AM EST 6:04 PM EST
Civil Twilight 7:18 AM EST 6:34 PM EST
Nautical Twilight 6:45 AM EST 7:07 PM EST
Astronomical Twilight 6:12 AM EST 7:40 PM EST
Moon 6:17 AM EST (2/8) 4:36 PM EST (2/8)
Length of Visible Light 11h 15m
Length of Day
10h 16m
Waning Crescent, 3% of the Moon is Illuminated
Feb 8
Waning Crescent
Feb 10
New
Feb 17
First Quarter
Feb 25
Full
Mar 4
Last Quarter

Hourly Weather History & Observations

Time (EST) Temp. Windchill Dew Point Humidity Pressure Visibility Wind Dir Wind Speed Gust Speed Precip Events Conditions
12:39 AM 30.2 °F 21.3 °F 28.4 °F 93% 29.85 in 2.0 mi ENE 10.4 mph - 0.03 in Snow Light Snow
12:53 AM 30.0 °F 22.4 °F 28.0 °F 92% 29.89 in 2.5 mi NNE 8.1 mph - 0.03 in Snow Light Snow
1:14 AM 30.2 °F 20.8 °F 26.6 °F 86% 29.86 in 4.0 mi NE 11.5 mph - 0.00 in Snow Light Snow
1:53 AM 30.0 °F 21.7 °F 26.1 °F 85% 29.90 in 5.0 mi North 9.2 mph - 0.00 in Snow Light Snow
2:53 AM 28.9 °F 19.2 °F 25.0 °F 85% 29.90 in 4.0 mi NNE 11.5 mph - 0.02 in Snow Light Snow
3:11 AM 28.4 °F 18.5 °F 24.8 °F 86% 29.88 in 2.5 mi North 11.5 mph - 0.00 in Snow Light Snow
3:23 AM 28.4 °F 19.1 °F 24.8 °F 86% 29.88 in 2.0 mi North 10.4 mph - 0.01 in Snow Light Snow
3:28 AM 28.4 °F 19.1 °F 24.8 °F 86% 29.88 in 1.5 mi North 10.4 mph - 0.01 in Snow Light Snow
3:35 AM 28.4 °F 18.5 °F 24.8 °F 86% 29.88 in 1.5 mi North 11.5 mph - 0.02 in Snow Light Snow
3:53 AM 28.0 °F 19.3 °F 25.0 °F 88% 29.92 in 1.5 mi North 9.2 mph - 0.03 in Snow Light Snow
4:06 AM 28.4 °F 19.7 °F 24.8 °F 86% 29.89 in 1.2 mi North 9.2 mph - 0.00 in Snow Light Snow
4:53 AM 28.9 °F 21.1 °F 26.1 °F 89% 29.95 in 1.5 mi North 8.1 mph - 0.03 in Snow Light Snow
5:48 AM 28.4 °F 19.1 °F 26.6 °F 93% 29.96 in 2.0 mi NNW 10.4 mph - 0.03 in Snow Light Snow
5:53 AM 28.9 °F 19.8 °F 26.1 °F 89% 29.99 in 2.0 mi NNW 10.4 mph - 0.03 in Snow Light Snow
6:07 AM 28.4 °F 18.5 °F 26.6 °F 93% 29.97 in 1.8 mi North 11.5 mph - 0.00 in Snow Light Snow
6:18 AM 28.4 °F 19.1 °F 26.6 °F 93% 29.97 in 2.0 mi North 10.4 mph - 0.00 in Snow Light Snow
6:50 AM 30.2 °F 18.9 °F 26.6 °F 86% 29.99 in 2.0 mi North 16.1 mph - 0.01 in Snow Light Snow
6:53 AM 28.9 °F 17.3 °F 26.1 °F 89% 30.02 in 2.5 mi North 16.1 mph - 0.01 in Snow Light Snow
7:04 AM 28.4 °F 19.7 °F 26.6 °F 93% 30.00 in 4.0 mi North 9.2 mph - 0.00 in Snow Light Snow
7:35 AM 28.4 °F 18.5 °F 24.8 °F 86% 30.02 in 4.0 mi North 11.5 mph - 0.00 in Snow Light Snow
7:53 AM 28.9 °F 19.2 °F 25.0 °F 85% 30.06 in 7.0 mi North 11.5 mph - 0.00 in Snow Light Snow
8:07 AM 28.4 °F 17.0 °F 24.8 °F 86% 30.05 in 7.0 mi NNW 15.0 mph 19.6 mph 0.00 in Snow Light Snow
8:42 AM 26.6 °F 13.8 °F 21.2 °F 80% 30.08 in 8.0 mi North 17.3 mph - 0.00 in   Mostly Cloudy
8:53 AM 26.1 °F 13.6 °F 21.0 °F 81% 30.12 in 9.0 mi North 16.1 mph - 0.00 in   Mostly Cloudy
9:04 AM 26.6 °F 13.8 °F 19.4 °F 74% 30.09 in 9.0 mi North 17.3 mph - N/A   Mostly Cloudy
9:53 AM 28.0 °F 16.5 °F 19.9 °F 72% 30.16 in 10.0 mi North 15.0 mph 24.2 mph 0.00 in   Mostly Cloudy
10:53 AM 28.4 °F 18.0 °F 19.4 °F 69% 30.15 in 10.0 mi North 12.7 mph - N/A   Mostly Cloudy
11:28 AM 28.4 °F 16.2 °F 17.6 °F 64% 30.17 in 10.0 mi North 17.3 mph 24.2 mph N/A   Scattered Clouds
11:53 AM 28.9 °F 19.8 °F 19.0 °F 67% 30.21 in 10.0 mi North 10.4 mph - N/A   Scattered Clouds
12:53 PM 30.0 °F 22.4 °F 19.9 °F 66% 30.22 in 10.0 mi NNW 8.1 mph - N/A   Partly Cloudy
1:53 PM 30.9 °F 20.2 °F 19.0 °F 61% 30.23 in 10.0 mi North 15.0 mph 20.7 mph N/A   Scattered Clouds
2:53 PM 33.1 °F 23.4 °F 18.0 °F 54% 30.22 in 10.0 mi North 13.8 mph 19.6 mph N/A   Scattered Clouds
3:53 PM 32.0 °F 22.5 °F 17.1 °F 54% 30.25 in 10.0 mi North 12.7 mph - N/A   Scattered Clouds
4:53 PM 32.0 °F 26.4 °F 18.0 °F 56% 30.27 in 10.0 mi NNE 5.8 mph - N/A   Mostly Cloudy
5:53 PM 28.9 °F 21.9 °F 16.0 °F 58% 30.29 in 10.0 mi North 6.9 mph - N/A   Mostly Cloudy
6:53 PM 26.1 °F 18.4 °F 15.1 °F 63% 30.32 in 10.0 mi North 6.9 mph - N/A   Scattered Clouds
7:53 PM 25.0 °F 18.1 °F 15.1 °F 66% 30.34 in 10.0 mi North 5.8 mph - N/A   Clear
8:53 PM 23.0 °F 13.9 °F 15.1 °F 72% 30.35 in 10.0 mi NNE 8.1 mph - N/A   Clear
9:53 PM 19.9 °F 12.1 °F 14.0 °F 78% 30.37 in 10.0 mi North 5.8 mph - N/A   Clear
10:53 PM 18.0 °F 11.1 °F 12.9 °F 81% 30.39 in 10.0 mi NNE 4.6 mph - N/A   Clear
11:53 PM 12.9 °F 6.9 °F 10.0 °F 88% 30.39 in 9.0 mi NE 3.5 mph - N/A   Clear